Regional Weather Roundup
Issued by NWS

Home | Current Version | Previous Version | Graphics & Text | Print | Product List | Glossary On
Versions: 1 2 3 4 5 6 7 8 9 10 11 12 13 14 15 16 17 18 19 20 21 22 23 24 25 26 27 28 29 30 31 32 33 34 35 36 37 38 39 40 41 42 43 44 45 46 47 48 49 50
000
ASUS43 KOAX 282310
RWRNE

WEATHER ROUNDUP FOR NEBRASKA
NATIONAL WEATHER SERVICE OMAHA NE
600 PM CDT THU AUG 28 2014

NOTES: SATELLITE DATA IS BEING USED TO AUGMENT CLOUD COVER ABOVE
       12000 FEET.
       "FAIR" INDICATES FEW OR NO CLOUDS BELOW 12,000 FEET WITH NO
       SIGNIFICANT WEATHER AND/OR OBSTRUCTIONS TO VISIBILITY.

  * THESE STATIONS DO NOT REPORT WEATHER SUCH AS RAIN...SNOW OR FOG.

NEZ001>004-019>022-054>056-290000-
NEBRASKA PANHANDLE

CITY           SKY/WX    TMP DP  RH WIND       PRES   REMARKS
SCOTTSBLUFF    CLOUDY    67  60  78 W9        30.05
ALLIANCE       CLOUDY    65  56  72 N15       29.99F
CHADRON        CLOUDY    65  58  78 W8        29.98F
KIMBALL        CLOUDY    62  57  83 NW5       30.08S
SIDNEY         CLOUDY    65  58  78 NW10      30.05F
$$

NEZ057>060-069>072-079>082-290000-
SOUTHWEST NEBRASKA

CITY           SKY/WX    TMP DP  RH WIND       PRES   REMARKS
NORTH PLATTE   MOSUNNY   80  63  55 W12       29.87F
IMPERIAL       MOSUNNY   76  59  55 NW18G28   29.94S
LEXINGTON      MOSUNNY   81  68  65 S7        29.85F
MCCOOK         SUNNY     84  58  40 W8        29.87F
OGALLALA       SUNNY     73  54  51 NW23G29   29.95S
$$

NEZ005>010-023>029-035>040-094-290000-
NORTH CENTRAL NEBRASKA

CITY           SKY/WX    TMP DP  RH WIND       PRES   REMARKS
VALENTINE      CLOUDY    75  64  68 N12       29.89S
AINSWORTH      RAIN      70  67  90 N9        29.88R
BROKEN BOW     MOSUNNY   82  68  62 SE10      29.83F
O`NEILL        PTSUNNY   83  68  60 S9        29.82F
ORD            PTSUNNY   82  68  62 SE9       29.81F
THEDFORD       CLOUDY    63  61  93 NW13G18   29.91  THUNDER
$$

NEZ041-046>049-061>064-073>077-083>087-290000-
SOUTH CENTRAL NEBRASKA

CITY           SKY/WX    TMP DP  RH WIND       PRES   REMARKS
GRAND ISLAND   CLOUDY    79  70  74 S7        29.84F
AURORA         PTSUNNY   79  71  76 S5        29.84F
HASTINGS       PTSUNNY   80  67  64 S9        29.85F
HEBRON         CLOUDY    80  65  59 S13G23    29.84F
HOLDREGE       SUNNY     80  62  55 S6        29.86F
KEARNEY *      MOSUNNY   79  68  69 S12       29.86F
YORK           PTSUNNY   77 N/A N/A S7        29.85F
$$

NEZ011>018-030>034-042>045-290000-
NORTHEAST NEBRASKA

CITY           SKY/WX    TMP DP  RH WIND       PRES   REMARKS
NORFOLK        CLOUDY    79  70  74 S10       29.83F
ALBION         CLOUDY    77  68  72 S9        29.83F
BLAIR          CLOUDY    79  70  72 S9        29.87S
FREMONT        CLOUDY    80  68  68 S7        29.85F
TEKAMAH        CLOUDY    80  74  81 SE7       29.84F
WAYNE          CLOUDY    77  73  85 SE10      29.84F
$$

NEZ050>053-065>068-078-088>093-290000-
SOUTHEAST NEBRASKA

CITY           SKY/WX    TMP DP  RH WIND       PRES   REMARKS
LINCOLN        CLOUDY    80  68  66 S10       29.85F
OMAHA EPPLEY   CLOUDY    81  69  67 S10       29.86S
BEATRICE       CLOUDY    78  69  75 S6        29.85F
FALLS CITY     CLOUDY    83  77  82 W8        29.84F HX  92
NEBRASKA CITY  CLOUDY    79  74  85 E6        29.87S
PLATTSMOUTH    CLOUDY    80  72  77 SE6       29.87S
$$

NEZ044-045-051>053-067-290000-
OMAHA AREA

CITY           SKY/WX    TMP DP  RH WIND       PRES   REMARKS
OMAHA EPPLEY   CLOUDY    81  69  67 S10       29.86S
BLAIR          CLOUDY    79  70  72 S9        29.87S
FREMONT        CLOUDY    80  68  68 S7        29.85F
MILLARD        CLOUDY    81  71  73 SE7       29.86S
OFFUTT AFB     CLOUDY    80  76  87 SE7       29.86S
PLATTSMOUTH    CLOUDY    80  72  77 SE6       29.87S
WAHOO          FAIR      80  71  73 SE3       29.84F
$$


USA.gov is the U.S. government's official web portal to all federal, state and local government web resources and services.